EN

Hourly Weather Bolshie Rogatki

Today, 24 October, Saturday

Time Temperature Precipitation Wind Pressure Humidity
00:00 +9°C° 0.1 mm 3 mps 746 mmHg 91%
01:00 +8°C° 0.1 mm 3 mps 746 mmHg 91%
02:00 +8°C° 0.1 mm 2 mps 746 mmHg 92%
03:00 +8°C° 0 mm 2 mps 746 mmHg 92%
04:00 +7°C° 0 mm 2 mps 746 mmHg 93%
05:00 +7°C° 0 mm 2 mps 746 mmHg 94%
06:00 +7°C° 0 mm 2 mps 746 mmHg 94%
07:00 +7°C° 0 mm 2 mps 747 mmHg 94%
08:00 +8°C° 0 mm 1 mps 747 mmHg 94%
09:00 +9°C° 0 mm 1 mps 747 mmHg 91%
10:00 +9°C° 0 mm 1 mps 747 mmHg 89%
11:00 +10°C° 0 mm 1 mps 747 mmHg 86%
12:00 +10°C° 0.1 mm 1 mps 747 mmHg 86%
13:00 +9°C° 0.1 mm 2 mps 747 mmHg 86%
14:00 +10°C° 0.1 mm 2 mps 747 mmHg 85%
15:00 +9°C° 0.1 mm 2 mps 747 mmHg 88%
16:00 +9°C° 0.1 mm 1 mps 747 mmHg 90%
17:00 +9°C° 0.1 mm 1 mps 747 mmHg 92%
18:00 +9°C° 0 mm 1 mps 747 mmHg 93%
19:00 +7°C° 0 mm 2 mps 747 mmHg 94%
20:00 +7°C° 0 mm 2 mps 747 mmHg 95%
21:00 +7°C° 0.8 mm 2 mps 747 mmHg 95%
22:00 +8°C° 0.8 mm 2 mps 747 mmHg 95%
23:00 +8°C° 0.8 mm 3 mps 747 mmHg 95%

Tomorrow, 25 October, Sunday

Time Temperature Precipitation Wind Pressure Humidity
00:00 +8°C° 0.2 mm 3 mps 747 mmHg 95%
01:00 +8°C° 0.2 mm 3 mps 747 mmHg 95%
02:00 +8°C° 0.2 mm 3 mps 748 mmHg 95%
03:00 +8°C° 0 mm 3 mps 748 mmHg 95%
04:00 +8°C° 0 mm 2 mps 748 mmHg 96%
05:00 +7°C° 0 mm 2 mps 748 mmHg 97%
06:00 +8°C° 0 mm 3 mps 749 mmHg 95%
07:00 +8°C° 0 mm 3 mps 749 mmHg 94%
08:00 +8°C° 0 mm 3 mps 750 mmHg 92%
09:00 +9°C° 0 mm 3 mps 750 mmHg 89%
10:00 +9°C° 0 mm 2 mps 751 mmHg 86%
11:00 +10°C° 0 mm 2 mps 751 mmHg 84%
12:00 +10°C° 0 mm 2 mps 751 mmHg 82%
13:00 +10°C° 0 mm 2 mps 752 mmHg 81%
14:00 +12°C° 0 mm 2 mps 752 mmHg 79%
15:00 +10°C° 0 mm 2 mps 752 mmHg 83%
16:00 +11°C° 0 mm 1 mps 752 mmHg 86%
17:00 +10°C° 0 mm 1 mps 752 mmHg 89%
18:00 +10°C° 0 mm 1 mps 753 mmHg 90%
19:00 +10°C° 0 mm 1 mps 753 mmHg 91%
20:00 +10°C° 0 mm 1 mps 754 mmHg 91%
21:00 +10°C° 0 mm 1 mps 754 mmHg 92%
22:00 +8°C° 0 mm 2 mps 754 mmHg 93%
23:00 +8°C° 0 mm 2 mps 754 mmHg 94%

Day after tomorrow, 26 October, Monday

Time Temperature Precipitation Wind Pressure Humidity
00:00 +7°C° 0 mm 2 mps 754 mmHg 95%
01:00 +7°C° 0 mm 2 mps 754 mmHg 95%
02:00 +7°C° 0 mm 2 mps 754 mmHg 96%
03:00 +6°C° 0 mm 2 mps 754 mmHg 96%
04:00 +6°C° 0 mm 2 mps 754 mmHg 96%
05:00 +6°C° 0 mm 2 mps 754 mmHg 96%
06:00 +6°C° 0 mm 2 mps 754 mmHg 96%
07:00 +6°C° 0 mm 2 mps 754 mmHg 95%
08:00 +7°C° 0 mm 2 mps 754 mmHg 95%
09:00 +8°C° 0 mm 3 mps 755 mmHg 91%
10:00 +9°C° 0 mm 3 mps 755 mmHg 88%
11:00 +10°C° 0 mm 3 mps 755 mmHg 84%
12:00 +11°C° 0 mm 3 mps 754 mmHg 84%
13:00 +11°C° 0 mm 3 mps 754 mmHg 84%
14:00 +12°C° 0 mm 4 mps 754 mmHg 84%
15:00 +11°C° 0 mm 4 mps 754 mmHg 86%
16:00 +11°C° 0 mm 4 mps 753 mmHg 87%
17:00 +10°C° 0 mm 4 mps 753 mmHg 89%
18:00 +10°C° 0 mm 4 mps 753 mmHg 89%
19:00 +11°C° 0 mm 4 mps 753 mmHg 88%
20:00 +10°C° 0 mm 5 mps 753 mmHg 87%
21:00 +10°C° 0 mm 5 mps 753 mmHg 87%
22:00 +9°C° 0 mm 5 mps 753 mmHg 87%
23:00 +9°C° 0 mm 5 mps 753 mmHg 86%

, 27 October, Tuesday

Time Temperature Precipitation Wind Pressure Humidity
00:00 +9°C° 0 mm 5 mps 753 mmHg 87%
01:00 +10°C° 0 mm 4 mps 753 mmHg 87%
02:00 +10°C° 0 mm 4 mps 753 mmHg 87%
03:00 +10°C° 0 mm 4 mps 753 mmHg 88%
04:00 +8°C° 0 mm 4 mps 753 mmHg 89%
05:00 +8°C° 0 mm 4 mps 753 mmHg 90%
06:00 +8°C° 0 mm 4 mps 753 mmHg 89%
07:00 +8°C° 0 mm 4 mps 753 mmHg 89%
08:00 +8°C° 0 mm 4 mps 753 mmHg 88%
09:00 +8°C° 0 mm 5 mps 753 mmHg 86%
10:00 +9°C° 0 mm 5 mps 753 mmHg 83%
11:00 +10°C° 0 mm 5 mps 753 mmHg 80%
12:00 +12°C° 0 mm 5 mps 753 mmHg 79%
13:00 +12°C° 0 mm 5 mps 753 mmHg 78%
14:00 +12°C° 0 mm 5 mps 753 mmHg 77%
15:00 +12°C° 0 mm 5 mps 753 mmHg 79%
16:00 +12°C° 0 mm 5 mps 753 mmHg 80%
17:00 +11°C° 0 mm 4 mps 753 mmHg 82%
18:00 +11°C° 0 mm 4 mps 753 mmHg 83%
19:00 +11°C° 0 mm 4 mps 753 mmHg 83%
20:00 +11°C° 0 mm 4 mps 753 mmHg 84%
21:00 +10°C° 0 mm 4 mps 753 mmHg 85%
22:00 +10°C° 0 mm 4 mps 753 mmHg 86%
23:00 +10°C° 0 mm 4 mps 753 mmHg 87%

27 October, Tuesday

Time Temperature Precipitation Wind Pressure Humidity
00:00 +9°C° 0 mm 5 mps 753 mmHg 87%
01:00 +10°C° 0 mm 4 mps 753 mmHg 87%
02:00 +10°C° 0 mm 4 mps 753 mmHg 87%
03:00 +10°C° 0 mm 4 mps 753 mmHg 88%
04:00 +8°C° 0 mm 4 mps 753 mmHg 89%
05:00 +8°C° 0 mm 4 mps 753 mmHg 90%
06:00 +8°C° 0 mm 4 mps 753 mmHg 89%
07:00 +8°C° 0 mm 4 mps 753 mmHg 89%
08:00 +8°C° 0 mm 4 mps 753 mmHg 88%
09:00 +8°C° 0 mm 5 mps 753 mmHg 86%
10:00 +9°C° 0 mm 5 mps 753 mmHg 83%
11:00 +10°C° 0 mm 5 mps 753 mmHg 80%
12:00 +12°C° 0 mm 5 mps 753 mmHg 79%
13:00 +12°C° 0 mm 5 mps 753 mmHg 78%
14:00 +12°C° 0 mm 5 mps 753 mmHg 77%
15:00 +12°C° 0 mm 5 mps 753 mmHg 79%
16:00 +12°C° 0 mm 5 mps 753 mmHg 80%
17:00 +11°C° 0 mm 4 mps 753 mmHg 82%
18:00 +11°C° 0 mm 4 mps 753 mmHg 83%
19:00 +11°C° 0 mm 4 mps 753 mmHg 83%
20:00 +11°C° 0 mm 4 mps 753 mmHg 84%
21:00 +10°C° 0 mm 4 mps 753 mmHg 85%
22:00 +10°C° 0 mm 4 mps 753 mmHg 86%
23:00 +10°C° 0 mm 4 mps 753 mmHg 87%

28 October, Wednesday

Time Temperature Precipitation Wind Pressure Humidity
00:00 +8°C° 0 mm 4 mps 752 mmHg 88%
01:00 +8°C° 0 mm 4 mps 752 mmHg 88%
02:00 +8°C° 0 mm 4 mps 752 mmHg 89%
03:00 +8°C° 0 mm 4 mps 752 mmHg 89%
04:00 +8°C° 0 mm 5 mps 752 mmHg 88%
05:00 +8°C° 0 mm 5 mps 752 mmHg 88%
06:00 +8°C° 0 mm 5 mps 752 mmHg 88%
07:00 +8°C° 0 mm 4 mps 752 mmHg 88%
08:00 +8°C° 0 mm 4 mps 752 mmHg 88%
09:00 +10°C° 0 mm 4 mps 752 mmHg 87%
10:00 +10°C° 0 mm 4 mps 753 mmHg 85%
11:00 +11°C° 0 mm 4 mps 753 mmHg 84%
12:00 +11°C° 0 mm 3 mps 753 mmHg 84%
13:00 +11°C° 0 mm 3 mps 753 mmHg 84%
14:00 +12°C° 0 mm 3 mps 753 mmHg 84%
15:00 +12°C° 0 mm 2 mps 753 mmHg 86%
16:00 +12°C° 0 mm 2 mps 753 mmHg 87%
17:00 +12°C° 0 mm 2 mps 754 mmHg 89%
18:00 +12°C° 0 mm 2 mps 754 mmHg 89%
19:00 +12°C° 0 mm 2 mps 754 mmHg 89%
20:00 +12°C° 0 mm 2 mps 754 mmHg 89%
21:00 +11°C° 0 mm 3 mps 754 mmHg 89%
22:00 +11°C° 0 mm 3 mps 754 mmHg 89%
23:00 +11°C° 0 mm 3 mps 754 mmHg 89%

29 October, Thursday

Time Temperature Precipitation Wind Pressure Humidity
00:00 +11°C° 0 mm 3 mps 754 mmHg 89%
01:00 +11°C° 0 mm 3 mps 753 mmHg 89%
02:00 +11°C° 0 mm 3 mps 753 mmHg 89%
03:00 +11°C° 0 mm 3 mps 753 mmHg 89%
04:00 +11°C° 0 mm 3 mps 753 mmHg 88%
05:00 +10°C° 0 mm 3 mps 753 mmHg 87%
06:00 +10°C° 0 mm 3 mps 753 mmHg 87%
07:00 +10°C° 0 mm 3 mps 753 mmHg 87%
08:00 +10°C° 0 mm 3 mps 753 mmHg 86%
09:00 +10°C° 0 mm 4 mps 753 mmHg 85%
10:00 +10°C° 0 mm 4 mps 753 mmHg 84%
11:00 +11°C° 0 mm 4 mps 753 mmHg 83%
12:00 +11°C° 0 mm 4 mps 753 mmHg 82%
13:00 +11°C° 0 mm 4 mps 753 mmHg 81%
14:00 +11°C° 0 mm 4 mps 752 mmHg 81%
15:00 +11°C° 0 mm 4 mps 752 mmHg 82%
16:00 +10°C° 0 mm 4 mps 752 mmHg 84%
17:00 +10°C° 0 mm 4 mps 752 mmHg 86%
18:00 +10°C° 0 mm 3 mps 752 mmHg 87%
19:00 +10°C° 0 mm 3 mps 752 mmHg 89%
20:00 +9°C° 0 mm 3 mps 752 mmHg 90%
21:00 +9°C° 0 mm 3 mps 752 mmHg 91%
22:00 +9°C° 0 mm 3 mps 752 mmHg 92%
23:00 +9°C° 0 mm 3 mps 752 mmHg 93%
Show more